| time (UTC) | temp C | wind direction | speed KPH | gust KPH | rain 1hr cm | rain 24hr cm | rain mn cm | humidity % | barometer mb |
| 20260503200512 | 16 | 42 | 0.0 | 6.4 | 0.00 | 0.00 | 0.00 | 46 | 1014.1 |
| 20260503200009 | 16 | 79 | 4.8 | 6.4 | 0.00 | 0.00 | 0.00 | 46 | 1014.2 |
| 20260503195506 | 16 | 82 | 4.8 | 8.0 | 0.00 | 0.00 | 0.00 | 44 | 1014.3 |
| 20260503195003 | 16 | 83 | 4.8 | 6.4 | 0.00 | 0.00 | 0.00 | 44 | 1014.3 |
| 20260503194500 | 16 | 358 | 3.2 | 4.8 | 0.00 | 0.00 | 0.00 | 46 | 1014.7 |
| 20260503193955 | 16 | 67 | 3.2 | 8.0 | 0.00 | 0.00 | 0.00 | 45 | 1014.8 |
| 20260503193451 | 16 | 79 | 3.2 | 8.0 | 0.00 | 0.00 | 0.00 | 43 | 1015.2 |
| 20260503192946 | 16 | 70 | 4.8 | 6.4 | 0.00 | 0.00 | 0.00 | 42 | 1015.1 |
| 20260503192443 | 16 | 92 | 1.6 | 4.8 | 0.00 | 0.00 | 0.00 | 44 | 1015.0 |
| 20260503191938 | 16 | 59 | 4.8 | 8.0 | 0.00 | 0.00 | 0.00 | 43 | 1014.9 |
| 20260503191436 | 16 | 82 | 3.2 | 6.4 | 0.00 | 0.00 | 0.00 | 44 | 1015.0 |
| 20260503190932 | 16 | 88 | 4.8 | 9.7 | 0.00 | 0.00 | 0.00 | 42 | 1015.0 |
| 20260503190430 | 17 | 89 | 3.2 | 6.4 | 0.00 | 0.00 | 0.00 | 41 | 1014.9 |
| 20260503185927 | 17 | 20 | 8.0 | 8.0 | 0.00 | 0.00 | 0.00 | 41 | 1014.9 |
| 20260503185423 | 17 | 66 | 3.2 | 4.8 | 0.00 | 0.00 | 0.00 | 44 | 1015.0 |
| 20260503184922 | 17 | 66 | 4.8 | 4.8 | 0.00 | 0.00 | 0.00 | 48 | 1014.9 |
| 20260503184419 | 17 | 214 | 1.6 | 9.7 | 0.00 | 0.00 | 0.00 | 41 | 1015.1 |
| 20260503183916 | 17 | 73 | 1.6 | 8.0 | 0.00 | 0.00 | 0.00 | 46 | 1015.1 |
| 20260503183412 | 17 | 68 | 3.2 | 3.2 | 0.00 | 0.00 | 0.00 | 44 | 1015.4 |
| 20260503182910 | 17 | 91 | 4.8 | 4.8 | 0.00 | 0.00 | 0.00 | 45 | 1015.9 |
| 20260503182409 | 17 | 86 | 3.2 | 6.4 | 0.00 | 0.00 | 0.00 | 45 | 1015.9 |
| 20260503181905 | 16 | 92 | 1.6 | 6.4 | 0.00 | 0.00 | 0.00 | 49 | 1015.6 |
| 20260503181402 | 16 | 86 | 0.0 | 8.0 | 0.00 | 0.00 | 0.00 | 42 | 1016.1 |
| 20260503180858 | 16 | 88 | 3.2 | 6.4 | 0.00 | 0.00 | 0.00 | 46 | 1016.1 |
| 20260503180356 | 15 | 261 | 0.0 | 8.0 | 0.00 | 0.00 | 0.00 | 41 | 1016.3 |
| 20260503175853 | 15 | 66 | 3.2 | 8.0 | 0.00 | 0.00 | 0.00 | 43 | 1016.3 |
| 20260503175351 | 15 | 80 | 4.8 | 6.4 | 0.00 | 0.00 | 0.00 | 44 | 1016.2 |
| 20260503174846 | 15 | 63 | 6.4 | 6.4 | 0.00 | 0.00 | 0.00 | 45 | 1016.6 |
| 20260503174345 | 15 | 344 | 3.2 | 6.4 | 0.00 | 0.00 | 0.00 | 43 | 1016.3 |
| 20260503173839 | 15 | 76 | 3.2 | 6.4 | 0.00 | 0.00 | 0.00 | 43 | 1016.6 |
| 20260503173336 | 15 | 44 | 6.4 | 6.4 | 0.00 | 0.00 | 0.00 | 43 | 1016.7 |
| 20260503172833 | 15 | 78 | 3.2 | 3.2 | 0.00 | 0.00 | 0.00 | 43 | 1016.9 |
| 20260503172331 | 15 | 99 | 3.2 | 11.3 | 0.00 | 0.00 | 0.00 | 41 | 1016.8 |
| 20260503171826 | 16 | 279 | 0.0 | 14.5 | 0.00 | 0.00 | 0.00 | 41 | 1016.9 |
| 20260503171323 | 15 | 73 | 1.6 | 6.4 | 0.00 | 0.00 | 0.00 | 43 | 1016.9 |
| 20260503170821 | 16 | 53 | 1.6 | 9.7 | 0.00 | 0.00 | 0.00 | 40 | 1016.9 |
| 20260503170317 | 15 | 87 | 3.2 | 4.8 | 0.00 | 0.00 | 0.00 | 45 | 1016.9 |
| 20260503150709 | 12 | 72 | 4.8 | 6.4 | 0.00 | 0.00 | 0.00 | 45 | 1018.1 |
| 20260503150206 | 12 | 56 | 6.4 | 11.3 | 0.00 | 0.00 | 0.00 | 45 | 1018.1 |
| 20260503140130 | 10 | 324 | 3.2 | 8.0 | 0.00 | 0.00 | 0.00 | 49 | 1018.7 |
| 20260503131059 | 10 | 65 | 1.6 | 6.4 | 0.00 | 0.00 | 0.00 | 53 | 1018.6 |
| 20260503130556 | 10 | 84 | 3.2 | 6.4 | 0.00 | 0.00 | 0.00 | 55 | 1018.8 |
| 20260503110447 | 2 | 100 | 1.6 | 4.8 | 0.00 | 0.00 | 0.00 | 79 | 1018.1 |
| 20260503090338 | 2 | 79 | 3.2 | 3.2 | 0.00 | 0.00 | 0.00 | 81 | 1017.7 |
| 20260503081306 | 3 | 99 | 3.2 | 3.2 | 0.00 | 0.00 | 0.00 | 79 | 1017.9 |
| 20260503080802 | 3 | 88 | 3.2 | 3.2 | 0.00 | 0.00 | 0.00 | 79 | 1017.9 |
| 20260503080259 | 3 | 94 | 3.2 | 3.2 | 0.00 | 0.00 | 0.00 | 79 | 1017.9 |
| 20260503072735 | 2 | 95 | 3.2 | 3.2 | 0.00 | 0.00 | 0.00 | 82 | 1017.8 |
| 20260503072232 | 2 | 89 | 1.6 | 3.2 | 0.00 | 0.00 | 0.00 | 82 | 1017.8 |
| 20260503071728 | 2 | 93 | 3.2 | 3.2 | 0.00 | 0.00 | 0.00 | 82 | 1017.9 |
| 20260503071226 | 2 | 95 | 3.2 | 3.2 | 0.00 | 0.00 | 0.00 | 82 | 1017.9 |
| 20260503070722 | 3 | 89 | 3.2 | 3.2 | 0.00 | 0.00 | 0.00 | 82 | 1017.9 |
| 20260503070220 | 3 | 100 | 3.2 | 3.2 | 0.00 | 0.00 | 0.00 | 81 | 1017.8 |
| 20260503060145 | 3 | 97 | 3.2 | 3.2 | 0.00 | 0.00 | 0.00 | 79 | 1018.6 |
| 20260503054632 | 3 | 92 | 3.2 | 3.2 | 0.00 | 0.00 | 0.00 | 79 | 1018.5 |
| 20260503054129 | 3 | 92 | 3.2 | 3.2 | 0.00 | 0.00 | 0.00 | 79 | 1018.0 |
| 20260503053627 | 3 | 94 | 3.2 | 3.2 | 0.00 | 0.00 | 0.00 | 79 | 1018.4 |
| 20260503053126 | 3 | 93 | 3.2 | 3.2 | 0.00 | 0.00 | 0.00 | 78 | 1018.5 |
| 20260503052621 | 3 | 96 | 3.2 | 3.2 | 0.00 | 0.00 | 0.00 | 78 | 1018.4 |
| 20260503052118 | 3 | 93 | 3.2 | 3.2 | 0.00 | 0.00 | 0.00 | 78 | 1018.5 |
| 20260503051613 | 3 | 89 | 3.2 | 3.2 | 0.00 | 0.00 | 0.00 | 77 | 1018.5 |
| 20260503051111 | 3 | 92 | 3.2 | 3.2 | 0.00 | 0.00 | 0.00 | 77 | 1018.7 |
| 20260503050608 | 3 | 88 | 3.2 | 3.2 | 0.00 | 0.00 | 0.00 | 78 | 1018.5 |
| 20260503050104 | 3 | 94 | 3.2 | 3.2 | 0.00 | 0.00 | 0.00 | 78 | 1018.6 |
| 20260503045601 | 3 | 86 | 3.2 | 3.2 | 0.00 | 0.00 | 0.00 | 77 | 1018.6 |
| 20260503045059 | 3 | 89 | 3.2 | 3.2 | 0.00 | 0.00 | 0.00 | 77 | 1018.6 |
| 20260503044555 | 3 | 92 | 3.2 | 3.2 | 0.00 | 0.00 | 0.00 | 77 | 1018.8 |
| 20260503044053 | 3 | 93 | 3.2 | 3.2 | 0.00 | 0.00 | 0.00 | 77 | 1018.6 |
| 20260503043549 | 3 | 95 | 3.2 | 3.2 | 0.00 | 0.00 | 0.00 | 77 | 1018.7 |
| 20260503043046 | 3 | 98 | 3.2 | 3.2 | 0.00 | 0.00 | 0.00 | 76 | 1018.6 |
| 20260503042543 | 4 | 89 | 3.2 | 3.2 | 0.00 | 0.00 | 0.00 | 76 | 1018.6 |
| 20260503042039 | 4 | 93 | 3.2 | 3.2 | 0.00 | 0.00 | 0.00 | 76 | 1018.5 |
| 20260503041536 | 4 | 88 | 3.2 | 3.2 | 0.00 | 0.00 | 0.00 | 76 | 1018.5 |
| 20260503041034 | 4 | 95 | 3.2 | 3.2 | 0.00 | 0.00 | 0.00 | 76 | 1018.4 |
| 20260503040531 | 4 | 93 | 3.2 | 3.2 | 0.00 | 0.00 | 0.00 | 76 | 1018.6 |
| 20260503040028 | 4 | 89 | 3.2 | 3.2 | 0.00 | 0.00 | 0.00 | 75 | 1018.5 |
| 20260503035525 | 4 | 89 | 3.2 | 3.2 | 0.00 | 0.00 | 0.00 | 75 | 1018.6 |
| 20260503035022 | 4 | 89 | 3.2 | 3.2 | 0.00 | 0.00 | 0.00 | 74 | 1018.6 |
| 20260503034519 | 4 | 92 | 3.2 | 3.2 | 0.00 | 0.00 | 0.00 | 73 | 1018.5 |
| 20260503034016 | 5 | 93 | 3.2 | 3.2 | 0.00 | 0.00 | 0.00 | 73 | 1018.6 |
| 20260503033513 | 5 | 87 | 3.2 | 3.2 | 0.00 | 0.00 | 0.00 | 73 | 1018.6 |
| 20260503033011 | 5 | 89 | 3.2 | 3.2 | 0.00 | 0.00 | 0.00 | 72 | 1018.6 |
| 20260503032510 | 5 | 93 | 3.2 | 3.2 | 0.00 | 0.00 | 0.00 | 71 | 1018.7 |
| 20260503032008 | 5 | 89 | 1.6 | 3.2 | 0.00 | 0.00 | 0.00 | 73 | 1018.7 |
| 20260503031505 | 5 | 93 | 3.2 | 3.2 | 0.00 | 0.00 | 0.00 | 71 | 1018.8 |
| 20260503031001 | 5 | 91 | 3.2 | 3.2 | 0.00 | 0.00 | 0.00 | 70 | 1018.7 |
| 20260503030457 | 5 | 93 | 3.2 | 3.2 | 0.00 | 0.00 | 0.00 | 70 | 1018.6 |
| 20260503025955 | 5 | 97 | 3.2 | 3.2 | 0.00 | 0.00 | 0.00 | 70 | 1018.7 |
| 20260503025451 | 5 | 97 | 3.2 | 3.2 | 0.00 | 0.00 | 0.00 | 69 | 1018.8 |
| 20260503024949 | 5 | 93 | 3.2 | 3.2 | 0.00 | 0.00 | 0.00 | 68 | 1018.9 |
| 20260503024445 | 5 | 95 | 3.2 | 3.2 | 0.00 | 0.00 | 0.00 | 67 | 1018.8 |
| 20260503023943 | 5 | 95 | 3.2 | 3.2 | 0.00 | 0.00 | 0.00 | 65 | 1018.6 |
| 20260503023440 | 6 | 89 | 3.2 | 3.2 | 0.00 | 0.00 | 0.00 | 65 | 1018.7 |
| 20260503022936 | 6 | 87 | 3.2 | 3.2 | 0.00 | 0.00 | 0.00 | 63 | 1018.8 |
| 20260503022431 | 6 | 97 | 3.2 | 3.2 | 0.00 | 0.00 | 0.00 | 63 | 1018.5 |
| 20260503021927 | 6 | 89 | 3.2 | 3.2 | 0.00 | 0.00 | 0.00 | 63 | 1018.5 |
| 20260503021424 | 6 | 98 | 3.2 | 3.2 | 0.00 | 0.00 | 0.00 | 60 | 1018.5 |
| 20260503020921 | 6 | 93 | 3.2 | 3.2 | 0.00 | 0.00 | 0.00 | 59 | 1018.4 |
| 20260503020419 | 6 | 94 | 3.2 | 3.2 | 0.00 | 0.00 | 0.00 | 61 | 1018.3 |
| 20260503015915 | 6 | 93 | 3.2 | 3.2 | 0.00 | 0.00 | 0.00 | 60 | 1018.4 |
| 20260503015412 | 6 | 93 | 3.2 | 3.2 | 0.00 | 0.00 | 0.00 | 59 | 1018.4 |
| 20260503014908 | 7 | 89 | 3.2 | 3.2 | 0.00 | 0.00 | 0.00 | 61 | 1018.1 |
| 20260503014406 | 7 | 94 | 3.2 | 3.2 | 0.00 | 0.00 | 0.00 | 56 | 1018.1 |
| 20260503013903 | 7 | 93 | 1.6 | 3.2 | 0.00 | 0.00 | 0.00 | 57 | 1018.0 |
| 20260503013400 | 7 | 93 | 3.2 | 3.2 | 0.00 | 0.00 | 0.00 | 53 | 1018.1 |
| 20260503012857 | 7 | 93 | 3.2 | 3.2 | 0.00 | 0.00 | 0.00 | 53 | 1018.0 |
| 20260503012355 | 7 | 95 | 3.2 | 3.2 | 0.00 | 0.00 | 0.00 | 54 | 1018.1 |
| 20260503011851 | 8 | 92 | 3.2 | 3.2 | 0.00 | 0.00 | 0.00 | 50 | 1018.0 |
| 20260503011348 | 8 | 96 | 1.6 | 3.2 | 0.00 | 0.00 | 0.00 | 53 | 1017.8 |
| 20260503010844 | 8 | 94 | 3.2 | 3.2 | 0.00 | 0.00 | 0.00 | 52 | 1017.9 |
| 20260503010342 | 8 | 89 | 3.2 | 3.2 | 0.00 | 0.00 | 0.00 | 46 | 1017.9 |
| 20260503005838 | 8 | 95 | 3.2 | 3.2 | 0.00 | 0.00 | 0.00 | 46 | 1018.1 |
| 20260503005336 | 9 | 92 | 3.2 | 3.2 | 0.00 | 0.00 | 0.00 | 47 | 1018.0 |
| 20260503004832 | 9 | 93 | 3.2 | 3.2 | 0.00 | 0.00 | 0.00 | 43 | 1018.1 |
| 20260503004330 | 9 | 83 | 1.6 | 3.2 | 0.00 | 0.00 | 0.00 | 45 | 1017.9 |
| 20260503003827 | 10 | 105 | 1.6 | 3.2 | 0.00 | 0.00 | 0.00 | 41 | 1017.9 |
| 20260503003324 | 10 | 89 | 1.6 | 3.2 | 0.00 | 0.00 | 0.00 | 41 | 1017.8 |
| 20260503002821 | 10 | 93 | 4.8 | 4.8 | 0.00 | 0.00 | 0.00 | 41 | 1017.8 |
| 20260503002318 | 10 | 101 | 1.6 | 4.8 | 0.00 | 0.00 | 0.00 | 41 | 1017.8 |
| 20260503001814 | 10 | 92 | 3.2 | 3.2 | 0.00 | 0.00 | 0.00 | 38 | 1017.7 |
| 20260503001311 | 10 | 119 | 0.0 | 4.8 | 0.00 | 0.00 | 0.00 | 38 | 1017.7 |
| 20260503000809 | 10 | 79 | 3.2 | 4.8 | 0.00 | 0.00 | 0.00 | 37 | 1017.8 |
| 20260503000306 | 10 | 99 | 0.0 | 3.2 | 0.00 | 0.00 | 0.00 | 36 | 1017.6 |
| 20260502235802 | 10 | 101 | 3.2 | 4.8 | 0.00 | 0.00 | 0.00 | 36 | 1017.6 |
| 20260502235300 | 10 | 81 | 4.8 | 4.8 | 0.00 | 0.00 | 0.00 | 38 | 1017.7 |
| 20260502234756 | 11 | 47 | 3.2 | 3.2 | 0.00 | 0.00 | 0.00 | 36 | 1017.5 |
| 20260502234253 | 11 | 71 | 3.2 | 4.8 | 0.00 | 0.00 | 0.00 | 36 | 1017.7 |
| 20260502233749 | 11 | 133 | 0.0 | 4.8 | 0.00 | 0.00 | 0.00 | 35 | 1017.5 |
| 20260502233247 | 12 | 48 | 0.0 | 8.0 | 0.00 | 0.00 | 0.00 | 35 | 1017.5 |
| 20260502232742 | 14 | 26 | 0.0 | 6.4 | 0.00 | 0.00 | 0.00 | 31 | 1017.6 |
| 20260502232239 | 15 | 87 | 0.0 | 4.8 | 0.00 | 0.00 | 0.00 | 31 | 1017.4 |
| 20260502231736 | 14 | 76 | 0.0 | 4.8 | 0.00 | 0.00 | 0.00 | 30 | 1017.6 |
| 20260502231234 | 14 | 76 | 0.0 | 4.8 | 0.00 | 0.00 | 0.00 | 32 | 1017.4 |
| 20260502230732 | 13 | 55 | 0.0 | 3.2 | 0.00 | 0.00 | 0.00 | 34 | 1017.8 |
| 20260502230230 | 11 | 89 | 0.0 | 3.2 | 0.00 | 0.00 | 0.00 | 38 | 1017.4 |
| 20260502225726 | 12 | 240 | 1.6 | 3.2 | 0.00 | 0.00 | 0.00 | 34 | 1017.6 |
| 20260502225223 | 12 | 75 | 1.6 | 3.2 | 0.00 | 0.00 | 0.00 | 38 | 1017.6 |
| 20260502224719 | 11 | 94 | 1.6 | 4.8 | 0.00 | 0.00 | 0.00 | 36 | 1017.5 |
| 20260502224216 | 11 | 132 | 0.0 | 6.4 | 0.00 | 0.00 | 0.00 | 36 | 1017.6 |
| 20260502223714 | 11 | 106 | 1.6 | 4.8 | 0.00 | 0.00 | 0.00 | 35 | 1017.6 |
| 20260502223212 | 11 | 84 | 3.2 | 3.2 | 0.00 | 0.00 | 0.00 | 35 | 1017.9 |
| 20260502222709 | 12 | 106 | 1.6 | 4.8 | 0.00 | 0.00 | 0.00 | 34 | 1017.6 |
| 20260502222206 | 13 | 0 | 3.2 | 6.4 | 0.00 | 0.00 | 0.00 | 32 | 1017.6 |
| 20260502221702 | 15 | 58 | 0.0 | 3.2 | 0.00 | 0.00 | 0.00 | 30 | 1017.5 |
| 20260502221159 | 15 | 83 | 1.6 | 3.2 | 0.00 | 0.00 | 0.00 | 33 | 1017.6 |
| 20260502220655 | 13 | 74 | 4.8 | 4.8 | 0.00 | 0.00 | 0.00 | 34 | 1017.7 |
| 20260502220151 | 11 | 96 | 1.6 | 3.2 | 0.00 | 0.00 | 0.00 | 37 | 1017.6 |
| 20260502215648 | 12 | 50 | 3.2 | 6.4 | 0.00 | 0.00 | 0.00 | 37 | 1017.8 |
| 20260502215145 | 12 | 120 | 1.6 | 4.8 | 0.00 | 0.00 | 0.00 | 36 | 1017.7 |
| 20260502214642 | 11 | 98 | 1.6 | 4.8 | 0.00 | 0.00 | 0.00 | 42 | 1017.5 |
| 20260502214139 | 11 | 304 | 0.0 | 4.8 | 0.00 | 0.00 | 0.00 | 36 | 1017.5 |
| 20260502213637 | 12 | 350 | 11.3 | 11.3 | 0.00 | 0.00 | 0.00 | 34 | 1017.6 |
| 20260502213134 | 13 | 302 | 0.0 | 3.2 | 0.00 | 0.00 | 0.00 | 37 | 1017.6 |
| 20260502212633 | 12 | 126 | 0.0 | 3.2 | 0.00 | 0.00 | 0.00 | 37 | 1017.5 |
| 20260502212131 | 12 | 40 | 3.2 | 4.8 | 0.00 | 0.00 | 0.00 | 35 | 1017.5 |
| 20260502211625 | 12 | 140 | 0.0 | 4.8 | 0.00 | 0.00 | 0.00 | 35 | 1017.4 |
| 20260502211123 | 12 | 268 | 3.2 | 4.8 | 0.00 | 0.00 | 0.00 | 34 | 1017.6 |
| 20260502210621 | 13 | 94 | 3.2 | 8.0 | 0.00 | 0.00 | 0.00 | 35 | 1017.4 |
| 20260502210117 | 13 | 58 | 1.6 | 6.4 | 0.00 | 0.00 | 0.00 | 35 | 1017.4 |
| 20260502205614 | 13 | 268 | 4.8 | 6.4 | 0.00 | 0.00 | 0.00 | 32 | 1017.4 |
| 20260502205111 | 13 | 309 | 0.0 | 4.8 | 0.00 | 0.00 | 0.00 | 32 | 1017.3 |
| 20260502204608 | 12 | 59 | 0.0 | 6.4 | 0.00 | 0.00 | 0.00 | 34 | 1017.5 |
| 20260502204105 | 13 | 71 | 3.2 | 6.4 | 0.00 | 0.00 | 0.00 | 39 | 1017.4 |
| 20260502203602 | 13 | 247 | 3.2 | 4.8 | 0.00 | 0.00 | 0.00 | 35 | 1017.4 |
| 20260502203100 | 12 | 67 | 1.6 | 3.2 | 0.00 | 0.00 | 0.00 | 38 | 1017.4 |
| 20260502202555 | 12 | 68 | 1.6 | 4.8 | 0.00 | 0.00 | 0.00 | 38 | 1017.4 |
| 20260502202054 | 11 | 73 | 1.6 | 6.4 | 0.00 | 0.00 | 0.00 | 38 | 1017.5 |
| 20260502201549 | 11 | 238 | 0.0 | 6.4 | 0.00 | 0.00 | 0.00 | 36 | 1017.6 |
| 20260502201046 | 12 | 103 | 4.8 | 4.8 | 0.00 | 0.00 | 0.00 | 36 | 1017.5 |